This demonstration page uses our WeatherBlox Daily Observations layout. Learn more.

Left ArrowRight Arrow

41.12389, -100.76542

Hourly Observations for December 5, 2016

Temp ( °F °C ) Dew Point ( °F °C ) Humidity (%) Winds ( mph kmh ) Pressure ( in mb ) Visibility ( mi km ) Precip ( " mm )
12:53 am 00:53 Clear 35 1.7 16 -8.9 46 46 W 7 11 29.72 1007 10 16 0.00 0.00
1:53 am 01:53 Mostly Cloudy 35 1.7 18 -7.8 50 50 WSW 6 9 29.71 1006 10 16 0.00 0.00
2:53 am 02:53 Mostly Cloudy 32 0 20 -6.7 61 61 Calm 29.69 1005 10 16 0.00 0.00
3:53 am 03:53 Partly Cloudy 32 0 21 -6.1 64 64 Calm 29.70 1006 10 16 0.00 0.00
4:53 am 04:53 Cloudy 35 1.7 20 -6.7 54 54 Calm 29.65 1004 10 16 0.00 0.00
5:53 am 05:53 Cloudy 33 0.6 21 -6.1 61 61 Calm 29.65 1004 10 16 0.00 0.00
6:53 am 06:53 Mostly Clear 33 0.6 21 -6.1 61 61 E 9 15 29.60 1002 10 16 0.00 0.00
7:53 am 07:53 Cloudy 34 1.1 21 -6.1 59 59 WSW 6 9 29.64 1004 10 16 0.00 0.00
8:53 am 08:53 Partly Cloudy 34 1.1 21 -6.1 59 59 Calm 29.64 1004 10 16 0.00 0.00
9:53 am 09:53 Cloudy 36 2.2 22 -5.6 57 57 S 5 7 29.63 1004 10 16 0.00 0.00
10:53 am 10:53 Cloudy 38 3.3 23 -5 55 55 SE 5 7 29.62 1003 10 16 0.00 0.00
11:53 am 11:53 Cloudy 44 6.7 24 -4.4 45 45 WNW 7 11 29.60 1003 10 16 0.00 0.00
12:53 pm 12:53 Cloudy 50 10 24 -4.4 36 36 WNW 10 17 29.58 1002 10 16 0.00 0.00
1:53 pm 13:53 Partly Cloudy 57 13.9 25 -3.9 29 29 WNW 23 37 29.57 1002 10 16 0.00 0.00
2:53 pm 14:53 Sunny 54 12.2 17 -8.3 23 23 WNW 30 48 29.62 1003 10 16 0.00 0.00
3:53 pm 15:53 Partly Cloudy 50 10 25 -3.9 38 38 NNW 22 35 29.67 1005 10 16 0.00 0.00
4:53 pm 16:53 Partly Cloudy 41 5 28 -2.2 60 60 N 21 33 29.74 1007 10 16 0.00 0.00
5:46 pm 17:46 Cloudy 34 1 21 -6 60 60 NNW 25 41 29.88 1012 10 16 0.00 0.00
5:53 pm 17:53 Cloudy 32 0 20 -6.7 61 61 N 17 28 29.84 1011 10 16 0.00 0.00
6:04 pm 18:04 Cloudy 32 0 19 -7 60 60 NNW 17 28 29.91 1013 10 16 0.00 0.00
6:53 pm 18:53 Cloudy 29 -1.7 17 -8.3 61 61 NNW 16 26 29.92 1013 10 16 0.00 0.00
7:53 pm 19:53 Cloudy 28 -2.2 16 -8.9 60 60 NNW 15 24 29.94 1014 10 16 0.00 0.00
8:53 pm 20:53 Cloudy 27 -2.8 15 -9.4 61 61 NNW 9 15 29.97 1015 10 16 0.00 0.00
9:53 pm 21:53 Cloudy 26 -3.3 14 -10 60 60 NW 8 13 30.00 1016 10 16 0.00 0.00
10:53 pm 22:53 Mostly Cloudy 24 -4.4 15 -9.4 68 68 WNW 8 13 30.00 1016 10 16 0.00 0.00
11:53 pm 23:53 Mostly Cloudy 24 -4.4 16 -8.9 71 71 WNW 10 17 29.99 1016 10 16 0.00 0.00

Powered by AerisWeather